Location: Newark
(52.1333°N, 0.4500°W)
Time: 23:25:34
(UTC+00:00)

Envisat - Visible Passes

Search period start: 13 November 2019 00:00
Search period end: 23 November 2019 00:00
Orbit: 764 x 766 km, 98.1° (Epoch: 13 November)

Date Brightness Start Highest point End Pass type
(mag) Time Alt. Az. Time Alt. Az. Time Alt. Az.
13 Nov 4.8 06:22:15 10° NNE 06:26:57 36° E 06:31:37 10° SSE visible
13 Nov 2.9 17:42:14 10° SSE 17:47:19 81° ENE 17:52:26 10° NNW visible
13 Nov 5.7 19:23:38 10° SW 19:27:00 18° W 19:30:22 10° NW visible
14 Nov 5.9 05:46:13 10° NE 05:49:49 19° E 05:53:23 10° SE visible
14 Nov 3.3 17:05:54 10° SE 17:10:40 43° ENE 17:15:28 10° N visible
14 Nov 4.7 18:45:15 10° SSW 18:49:49 33° W 18:54:25 10° NNW visible
15 Nov 3.4 18:07:48 10° S 18:12:51 65° WSW 18:17:55 10° NNW visible
15 Nov 6.2 19:51:53 10° W 19:52:54 11° W 19:53:55 10° WNW visible
16 Nov 5.2 06:11:08 10° NNE 06:15:35 30° E 06:20:01 10° SSE visible
16 Nov 2.9 17:31:02 10° SSE 17:36:03 67° ENE 17:41:08 10° N visible
16 Nov 5.4 19:11:45 10° SW 19:15:35 21° W 19:19:25 10° NW visible
17 Nov 6.0 05:35:22 10° NE 05:38:23 16° E 05:41:23 10° ESE visible
17 Nov 3.5 16:54:52 10° SE 16:59:28 36° ENE 17:04:06 10° N visible
17 Nov 4.3 18:33:42 10° SSW 18:38:28 40° W 18:43:16 10° NNW visible
18 Nov 4.2 06:36:20 10° NNE 06:41:16 47° E 06:46:10 10° S visible
18 Nov 3.1 17:56:28 10° S 18:01:33 79° WSW 18:06:40 10° NNW visible
18 Nov 6.0 19:39:04 10° WSW 19:41:27 13° W 19:43:50 10° NW visible
19 Nov 5.5 06:00:03 10° NE 06:04:13 25° E 06:08:21 10° SE visible
19 Nov 3.1 17:19:52 10° SE 17:24:49 55° ENE 17:29:48 10° N visible
19 Nov 5.1 18:59:59 10° SSW 19:04:11 26° W 19:08:24 10° NW visible
20 Nov 6.2 05:24:44 10° ENE 05:26:56 13° E 05:29:08 10° ESE visible
20 Nov 3.7 16:43:54 10° ESE 16:48:17 30° ENE 16:52:41 10° N visible
20 Nov 3.9 18:22:13 10° S 18:27:08 49° W 18:32:05 10° NNW visible
21 Nov 4.6 06:25:10 10° NNE 06:29:56 39° E 06:34:40 10° SSE visible
21 Nov 2.9 17:45:11 10° SSE 17:50:16 87° ENE 17:55:24 10° NNW visible
21 Nov 5.8 19:26:52 10° SW 19:30:00 16° W 19:33:09 10° NW visible
22 Nov 5.8 05:49:02 10° NE 05:52:49 20° E 05:56:34 10° SE visible
22 Nov 3.2 17:08:46 10° SE 17:13:36 46° ENE 17:18:27 10° N visible
22 Nov 4.8 18:48:19 10° SSW 18:52:48 31° W 18:57:19 10° NNW visible
